Location: Châteauvieux
(47.2310°N, 1.3828°E)
Time: 23:38:17
(UTC+00:00)

Cosmos 2278 - Pass Details

Date: 15 May 2026
Orbit: 837 x 852 km, 71.1° (Epoch: 11 June)

Event Time Altitude Azimuth Distance (km) Brightness Sun altitude
Rises 21:00:30 0° 333° (NNW) 3,430 8.6 -13.5°
Reaches altitude 10° 21:02:58 10° 333° (NNW) 2,491 7.5 -13.8°
Maximum altitude 21:08:42 87° 62° (ENE) 860 3.7 -14.4°
Enters shadow 21:12:35 22° 153° (SSE) 1,796 4.8 -14.8°
